H1 CPF 2 NER 2022 1 7 9 007 01 glonass106 H2 0705201 9106 32275 2022 1 7 0 0 0 2022 1 10 23 45 0 900 1 1 0 0 0 1 H9 10 0 59586 0.00000 0 -7322498.279 14049062.379 -19983904.754 10 0 59586 900.00000 0 -7594829.348 11498057.444 -21458139.509 10 0 59586 1800.00000 0 -8095475.595 8823565.551 -22515332.999 10 0 59586 2700.00000 0 -8828429.587 6096404.080 -23134948.118 10 0 59586 3600.00000 0 -9784823.586 3387866.410 -23304953.687 10 0 59586 4500.00000 0 -10943182.587 766967.008 -23022057.095 10 0 59586 5400.00000 0 -12270223.778 -1702209.320 -22291767.348 10 0 59586 6300.00000 0 -13722169.453 -3962944.434 -21128287.396 10 0 59586 7200.00000 0 -15246518.773 -5968009.382 -19554237.799 10 0 59586 8100.00000 0 -16784204.505 -7681385.019 -17600216.982 10 0 59586 9000.00000 0 -18272044.609 -9079510.029 -15304206.364 10 0 59586 9900.00000 0 -19645385.959 -10152005.321 -12710831.739 10 0 59586 10800.00000 0 -20840829.244 -10901845.798 -9870495.051 10 0 59586 11700.00000 0 -21798920.533 -11344973.572 -6838393.336 10 0 59586 12600.00000 0 -22466696.099 -11509370.197 -3673444.028 10 0 59586 13500.00000 0 -22799973.245 -11433628.269 -437137.686 10 0 59586 14400.00000 0 -22765290.407 -11165083.828 2807659.218 10 0 59586 15300.00000 0 -22341414.601 -10757589.478 5997927.696 10 0 59586 16200.00000 0 -21520352.493 -10269023.268 9071721.658 10 0 59586 17100.00000 0 -20307822.339 -9758639.353 11969371.178 10 0 59586 18000.00000 0 -18723166.716 -9284372.986 14634639.965 10 0 59586 18900.00000 0 -16798709.502 -8900214.056 17015814.550 10 0 59586 19800.00000 0 -14578583.707 -8653760.230 19066704.298 10 0 59586 20700.00000 0 -12117078.914 -8584052.997 20747533.137 10 0 59586 21600.00000 0 -9476576.829 -8719787.738 22025706.371 10 0 59586 22500.00000 0 -6725160.379 -9077973.179 22876438.317 10 0 59586 23400.00000 0 -3933995.230 -9663096.622 23283229.280 10 0 59586 24300.00000 0 -1174591.650 -10466830.218 23238183.161 10 0 59586 25200.00000 0 1483940.515 -11468290.999 22742159.972 10 0 59586 26100.00000 0 3977530.757 -12634844.305 21804760.394 10 0 59586 27000.00000 0 6249572.235 -13923417.655 20444142.616 10 0 59586 27900.00000 0 8253031.860 -15282270.807 18686674.561 10 0 59586 28800.00000 0 9952159.311 -16653148.623 16566427.730 10 0 59586 29700.00000 0 11323724.730 -17973727.194 14124521.751 10 0 59586 30600.00000 0 12357734.339 -19180251.191 11408331.586 10 0 59586 31500.00000 0 13057594.732 -20210251.988 8470572.196 10 0 59586 32400.00000 0 13439719.721 -21005232.408 5368277.889 10 0 59586 33300.00000 0 13532596.892 -21513204.964 2161695.876 10 0 59586 34200.00000 0 13375353.751 -21690976.241 -1086884.451 10 0 59586 35100.00000 0 13015884.558 -21506080.527 -4314343.590 10 0 59586 36000.00000 0 12508617.518 -20938280.406 -7457961.431 10 0 59586 36900.00000 0 11912017.311 -19980570.117 -10456639.707 10 0 59586 37800.00000 0 11285929.153 -18639638.514 -13252093.069 10 0 59586 38700.00000 0 10688877.295 -16935771.158 -15789985.213 10 0 59586 39600.00000 0 10175432.725 -14902194.824 -18020987.445 10 0 59586 40500.00000 0 9793761.781 -12583891.104 -19901738.973 10 0 59586 41400.00000 0 9583459.630 -10035928.083 -21395690.232 10 0 59586 42300.00000 0 9573760.329 -7321379.270 -22473812.915 10 0 59586 43200.00000 0 9782199.255 -4508916.070 -23115163.228 10 0 59586 44100.00000 0 10213784.457 -1670173.564 -23307287.737 10 0 59586 45000.00000 0 10860712.076 1123001.181 -23046464.165 10 0 59586 45900.00000 0 11702638.022 3801304.439 -22337772.772 10 0 59586 46800.00000 0 12707494.797 6300620.851 -21194996.965 10 0 59586 47700.00000 0 13832819.364 8564448.791 -19640355.106 10 0 59586 48600.00000 0 15027536.532 10546005.983 -17704068.570 10 0 59586 49500.00000 0 16234123.103 12209928.584 -15423774.206 10 0 59586 50400.00000 0 17391061.879 13533493.777 -12843792.435 10 0 59586 51300.00000 0 18435482.323 14507315.942 -10014264.990 10 0 59586 52200.00000 0 19305876.617 15135488.457 -6990178.951 10 0 59586 53100.00000 0 19944776.517 15435166.365 -3830296.164 10 0 59586 54000.00000 0 20301277.911 15435608.755 -596009.027 10 0 59586 54900.00000 0 20333306.327 15176722.397 2649854.819 10 0 59586 55800.00000 0 20009527.494 14707169.161 5844255.151 10 0 59586 56700.00000 0 19310822.061 14082118.099 8925165.045 10 0 59586 57600.00000 0 18231261.954 13360737.964 11832775.794 10 0 59586 58500.00000 0 16778546.893 12603536.641 14510657.163 10 0 59586 59400.00000 0 14973882.322 11869660.257 16906850.453 10 0 59586 60300.00000 0 12851303.353 11214266.072 18974873.347 10 0 59586 61200.00000 0 10456472.563 10686079.920 20674617.357 10 0 59586 62100.00000 0 7845001.231 10325240.915 21973121.083 10 0 59586 63000.00000 0 5080363.254 10161523.842 22845204.931 10 0 59586 63900.00000 0 2231487.850 10213013.747 23273955.629 10 0 59586 64800.00000 0 -629869.858 10485288.187 23251051.749 10 0 59586 65700.00000 0 -3431872.226 10971141.444 22776924.324 10 0 59586 66600.00000 0 -6105343.550 11650862.388 21860749.616 10 0 59586 67500.00000 0 -8586402.818 12493054.666 20520274.073 10 0 59586 68400.00000 0 -10818876.491 13455965.268 18781474.501 10 0 59586 69300.00000 0 -12756391.938 14489266.289 16678059.490 10 0 59586 70200.00000 0 -14364065.307 15536215.628 14250821.066 10 0 59586 71100.00000 0 -15619714.284 16536106.374 11546848.367 10 0 59586 72000.00000 0 -16514545.672 17426902.187 8618617.974 10 0 59586 72900.00000 0 -17053289.691 18147947.865 5522978.039 10 0 59586 73800.00000 0 -17253775.912 18642640.799 2320045.572 10 0 59586 74700.00000 0 -17145969.148 18860950.269 -927961.650 10 0 59586 75600.00000 0 -16770506.466 18761677.669 -4157935.707 10 0 59586 76500.00000 0 -16176797.553 18314361.501 -7307107.804 10 0 59586 77400.00000 0 -15420769.151 17500745.745 -10314271.672 10 0 59586 78300.00000 0 -14562349.415 16315748.690 -13120976.807 10 0 59586 79200.00000 0 -13662798.980 14767890.265 -15672667.854 10 0 59586 80100.00000 0 -12782001.978 12879158.861 -17919747.517 10 0 59586 81000.00000 0 -11975831.784 10684322.225 -19818542.139 10 0 59586 81900.00000 0 -11293702.918 8229710.288 -21332151.177 10 0 59586 82800.00000 0 -10776412.554 5571520.106 -22431164.105 10 0 59586 83700.00000 0 -10454362.618 2773712.868 -23094231.120 10 0 59586 84600.00000 0 -10346237.353 -94410.063 -23308476.860 10 0 59586 85500.00000 0 -10458191.899 -2960851.716 -23069749.384 10 0 59587 0.00000 0 -10783585.918 -5753675.109 -22382699.918 10 0 59587 900.00000 0 -11303273.555 -8403757.434 -21260691.468 10 0 59587 1800.00000 0 -11986437.009 -10847425.151 -19725539.125 10 0 59587 2700.00000 0 -12791929.165 -13028866.147 -17807085.727 10 0 59587 3600.00000 0 -13670068.368 -14902215.502 -15542621.724 10 0 59587 4500.00000 0 -14564809.825 -16433230.206 -12976160.045 10 0 59587 5400.00000 0 -15416202.037 -17600483.612 -10157579.861 10 0 59587 6300.00000 0 -16163024.540 -18396030.642 -7141655.776 10 0 59587 7200.00000 0 -16745495.400 -18825516.924 -3986991.421 10 0 59587 8100.00000 0 -17107933.911 -18907728.405 -754878.317 10 0 59587 9000.00000 0 -17201265.657 -18673601.546 2491897.486 10 0 59587 9900.00000 0 -16985263.785 -18164736.821 5690277.323 10 0 59587 10800.00000 0 -16430431.403 -17431479.269 8778156.223 10 0 59587 11700.00000 0 -15519445.256 -16530647.873 11695589.452 10 0 59587 12600.00000 0 -14248099.330 -15523010.264 14385955.495 10 0 59587 13500.00000 0 -12625708.184 -14470609.707 16797052.919 10 0 59587 14400.00000 0 -10674952.428 -13434057.263 18882109.984 10 0 59587 15300.00000 0 -8431172.220 -12469903.146 20600687.732 10 0 59587 16200.00000 0 -5941137.565 -11628197.674 21919459.641 10 0 59587 17100.00000 0 -3261345.846 -10950343.940 22812853.378 10 0 59587 18000.00000 0 -455916.668 -10467331.944 23263542.855 10 0 59587 18900.00000 0 2405829.524 -10198427.800 23262781.661 10 0 59587 19800.00000 0 5252009.535 -10150372.598 22810571.810 10 0 59587 20700.00000 0 8010923.772 -10317124.221 21915664.730 10 0 59587 21600.00000 0 10613797.985 -10680152.841 20595394.381 10 0 59587 22500.00000 0 12997407.654 -11209277.754 18875345.373 10 0 59587 23400.00000 0 15106476.809 -11864010.607 16788861.988 10 0 59587 24300.00000 0 16895752.398 -12595348.916 14376406.917 10 0 59587 25200.00000 0 18331668.444 -13347944.743 11684781.382 10 0 59587 26100.00000 0 19393531.051 -14062557.509 8766221.155 10 0 59587 27000.00000 0 20074175.223 -14678687.677 5677385.466 10 0 59587 27900.00000 0 20380066.371 -15137280.150 2478258.087 10 0 59587 28800.00000 0 20330842.633 -15383382.948 -769018.050 10 0 59587 29700.00000 0 19958317.635 -15368648.306 -4001349.917 10 0 59587 30600.00000 0 19304986.146 -15053569.796 -7155923.304 10 0 59587 31500.00000 0 18422096.027 -14409360.007 -10171427.069 10 0 59587 32400.00000 0 17367368.307 -13419388.445 -12989248.450 10 0 59587 33300.00000 0 16202462.025 -12080117.832 -15554615.662 10 0 59587 34200.00000 0 14990291.220 -10401498.193 -17817665.104 10 0 59587 35100.00000 0 13792307.578 -8406800.979 -19734412.218 10 0 59587 36000.00000 0 12665863.473 -6131899.007 -21267607.090 10 0 59587 36900.00000 0 11661766.596 -3624021.403 -22387458.208 10 0 59587 37800.00000 0 10822129.003 -940034.589 -23072210.602 10 0 59587 38700.00000 0 10178600.877 1855679.869 -23308567.444 10 0 59587 39600.00000 0 9751062.953 4693662.822 -23091947.199 10 0 59587 40500.00000 0 9546832.175 7502029.819 -22426571.597 10 0 59587 41400.00000 0 9560413.531 10209228.489 -21325382.846 10 0 59587 42300.00000 0 9773808.077 12746786.880 -19809791.694 10 0 59587 43200.00000 0 10157363.785 15051939.113 -17909261.132 10 0 59587 44100.00000 0 10671133.021 17070019.647 -15660733.590 10 0 59587 45000.00000 0 11266679.126 18756526.976 -13107912.549 10 0 59587 45900.00000 0 11889255.595 20078771.350 -10300412.343 10 0 59587 46800.00000 0 12480265.575 21017038.407 -7292792.521 10 0 59587 47700.00000 0 12979897.436 21565220.801 -4143495.634 10 0 59587 48600.00000 0 13329824.693 21730892.259 -913709.266 10 0 59587 49500.00000 0 13475855.682 21534821.938 2333825.308 10 0 59587 50400.00000 0 13370420.571 21009950.452 5536034.181 10 0 59587 51300.00000 0 12974790.078 20199871.663 8630737.460 10 0 59587 52200.00000 0 12260931.698 19156885.015 11557857.330 10 0 59587 53100.00000 0 11212924.582 17939701.189 14260583.717 10 0 59587 54000.00000 0 9827872.883 16610898.221 16686474.900 10 0 59587 54900.00000 0 8116278.490 15234235.434 18788471.875 10 0 59587 55800.00000 0 6101856.793 13871938.205 20525807.070 10 0 59587 56700.00000 0 3820802.399 12582067.443 21864790.389 10 0 59587 57600.00000 0 1320534.494 11416083.757 22779457.989 10 0 59587 58500.00000 0 -1342026.751 10416707.928 23252071.836 10 0 59587 59400.00000 0 -4102582.106 9616166.646 23273461.015 10 0 59587 60300.00000 0 -6891886.511 9034896.312 22843198.569 10 0 59587 61200.00000 0 -9638393.585 8680758.580 21969610.668 10 0 59587 62100.00000 0 -12271002.811 8548799.971 20669617.856 10 0 59587 63000.00000 0 -14721796.364 8621565.291 18968411.110 10 0 59587 63900.00000 0 -16928652.716 8869951.487 16898968.479 10 0 59587 64800.00000 0 -18837629.116 9254566.057 14501420.964 10 0 59587 65700.00000 0 -20405014.335 9727532.897 11822279.173 10 0 59587 66600.00000 0 -21598966.417 10234669.641 8913535.117 10 0 59587 67500.00000 0 -22400667.325 10717944.695 5831656.006 10 0 59587 68400.00000 0 -22804946.397 11118110.168 2636489.225 10 0 59587 69300.00000 0 -22820346.573 11377399.182 -609900.275 10 0 59587 70200.00000 0 -22468630.849 11442173.055 -3844437.433 10 0 59587 71100.00000 0 -21783749.918 11265405.730 -7004265.593 10 0 59587 72000.00000 0 -20810314.739 10808899.506 -10027971.593 10 0 59587 72900.00000 0 -19601638.716 10045137.416 -12856783.078 10 0 59587 73800.00000 0 -18217432.340 8958692.848 -15435714.280 10 0 59587 74700.00000 0 -16721247.785 7547135.790 -17714637.450 10 0 59587 75600.00000 0 -15177781.350 5821396.281 -19649258.933 10 0 59587 76500.00000 0 -13650147.488 3805568.548 -21201980.857 10 0 59587 77400.00000 0 -12197239.111 1536162.906 -22342631.713 10 0 59587 78300.00000 0 -10871284.998 -939164.412 -23049051.933 10 0 59587 79200.00000 0 -9715706.572 -3563351.434 -23307523.371 10 0 59587 80100.00000 0 -8763363.605 -6272068.959 -23113034.642 10 0 59587 81000.00000 0 -8035261.867 -8996169.104 -22469377.427 10 0 59587 81900.00000 0 -7539776.282 -11664342.735 -21389072.015 10 0 59587 82800.00000 0 -7272421.497 -14205875.733 -19893123.529 10 0 59587 83700.00000 0 -7216178.762 -16553389.992 -18010613.490 10 0 59587 84600.00000 0 -7342364.617 -18645455.535 -15778134.410 10 0 59587 85500.00000 0 -7612004.195 -20428965.280 -13239078.236 10 0 59588 0.00000 0 -7977650.534 -21861173.763 -10442792.484 10 0 59588 900.00000 0 -8385572.784 -22911315.855 -7443618.795 10 0 59588 1800.00000 0 -8778219.804 -23561736.391 -4299836.503 10 0 59588 2700.00000 0 -9096855.122 -23808486.609 -1072526.834 10 0 59588 3600.00000 0 -9284250.796 -23661361.058 2175616.141 10 0 59588 4500.00000 0 -9287325.892 -23143375.024 5381505.708 10 0 59588 5400.00000 0 -9059617.383 -22289705.107 8482889.492 10 0 59588 6300.00000 0 -8563478.499 -21146138.267 11419559.033 10 0 59588 7200.00000 0 -7771911.133 -19767095.290 14134518.084 10 0 59588 8100.00000 0 -6669954.438 -18213312.310 16575086.933 10 0 59588 9000.00000 0 -5255570.488 -16549278.165 18693921.448 10 0 59588 9900.00000 0 -3539989.107 -14840535.316 20449927.364 10 0 59588 10800.00000 0 -1547496.587 -13150957.391 21809052.655 10 0 59588 11700.00000 0 685323.837 -11540117.009 22744943.284 10 0 59588 12600.00000 0 3110868.974 -10060853.529 23239450.258 10 0 59588 13500.00000 0 5672258.071 -8757141.681 23282978.790 10 0 59588 14400.00000 0 8305469.276 -7662349.338 22874673.243 10 0 59588 15300.00000 0 10941782.475 -6797956.438 22022434.492 10 0 59588 16200.00000 0 13510428.151 -6172787.813 20742769.306 10 0 59588 17100.00000 0 15941333.319 -5782791.300 19060474.357 10 0 59588 18000.00000 0 18167851.175 -5611369.912 17008160.468 10 0 59588 18900.00000 0 20129361.711 -5630253.694 14625625.618 10 0 59588 19800.00000 0 21773635.492 -5800874.353 11959088.107 10 0 59588 20700.00000 0 23058862.236 -6076184.632 9060294.109 10 0 59588 21600.00000 0 23955259.684 -6402845.571 5985516.363 10 0 59588 22500.00000 0 24446195.418 -6723689.132 2794463.051 10 0 59588 23400.00000 0 24528774.562 -6980351.833 -450881.952 10 0 59588 24300.00000 0 24213868.643 -7115967.556 -3687464.845 10 0 59588 25200.00000 0 23525584.411 -7077804.975 -6852389.883 10 0 59588 26100.00000 0 22500194.944 -6819737.226 -9884145.178 10 0 59588 27000.00000 0 21184578.201 -6304438.396 -12723801.910 10 0 59588 27900.00000 0 19634228.863 -5505212.915 -15316163.191 10 0 59588 28800.00000 0 17910927.360 -4407379.464 -17610839.682 10 0 59588 29700.00000 0 16080164.313 -3009149.845 -19563230.859 10 0 59588 30600.00000 0 14208428.730 -1321964.548 -21135392.776 10 0 59588 31500.00000 0 12360473.900 629730.221 -22296775.471 10 0 59588 32400.00000 0 10596675.536 2809255.938 -23024815.963 10 0 59588 33300.00000 0 8970592.601 5168994.313 -23305375.614 10 0 59588 34200.00000 0 7526832.583 7652145.958 -23133013.646 10 0 59588 35100.00000 0 6299309.937 10194882.716 -22511091.764 10 0 59588 36000.00000 0 5309969.855 12728804.762 -21451708.027 10 0 59588 36900.00000 0 4568029.945 15183600.661 -19975461.231 10 0 59588 37800.00000 0 4069770.645 17489800.182 -18111050.342 10 0 59588 38700.00000 0 3798882.144 19581505.583 -15894716.504 10 0 59588 39600.00000 0 3727352.287 21398987.741 -13369538.287 10 0 59588 40500.00000 0 3816857.116 22891039.112 -10584593.668 10 0 59588 41400.00000 0 4020594.538 24016985.430 -7594004.854 10 0 59588 42300.00000 0 4285482.931 24748272.239 -4455884.618 10 0 59588 43200.00000 0 4554630.994 25069560.139 -1231204.744 10 0 59588 44100.00000 0 4769973.697 24979283.246 2017391.152 10 0 59588 45000.00000 0 4874962.165 24489647.874 5226806.861 10 0 59588 45900.00000 0 4817193.058 23626072.098 8334720.804 10 0 59588 46800.00000 0 4550865.670 22426090.298 11280797.014 10 0 59588 47700.00000 0 4038962.351 20937769.299 14007856.015 10 0 59588 48600.00000 0 3255059.655 19217703.083 16462982.788 10 0 59588 49500.00000 0 2184693.269 17328670.557 18598550.481 10 0 59588 50400.00000 0 826218.701 15337054.719 20373140.241 10 0 59588 51300.00000 0 -808869.176 13310131.214 21752339.901 10 0 59588 52200.00000 0 -2696171.971 11313339.314 22709406.698 10 0 59588 53100.00000 0 -4799170.035 9407648.887 23225781.774 10 0 59588 54000.00000 0 -7070519.591 7647132.453 23291447.179 10 0 59588 54900.00000 0 -9453811.820 6076842.755 22905118.864 10 0 59588 55800.00000 0 -11885721.760 4731083.467 22074272.188 10 0 59588 56700.00000 0 -14298458.822 3632144.179 20814999.415 10 0 59588 57600.00000 0 -16622418.049 2789551.567 19151701.652 10 0 59588 58500.00000 0 -18788922.684 2199867.227 17116620.706 10 0 59588 59400.00000 0 -20732944.604 1847039.935 14749219.267 10 0 59588 60300.00000 0 -22395689.771 1703296.935 12095420.643 10 0 59588 61200.00000 0 -23726941.008 1730536.391 9206722.157 10 0 59588 62100.00000 0 -24687060.270 1882161.957 6139198.844 10 0 59588 63000.00000 0 -25248566.509 2105281.735 2952416.327 10 0 59588 63900.00000 0 -25397222.691 2343178.375 -291725.993 10 0 59588 64800.00000 0 -25132586.106 2537945.396 -3530198.926 10 0 59588 65700.00000 0 -24467998.516 2633177.587 -6700070.921 10 0 59588 66600.00000 0 -23430016.342 2576600.912 -9739734.500 10 0 59588 67500.00000 0 -22057304.694 2322529.746 -12590107.360 10 0 59588 68400.00000 0 -20399041.670 1834046.557 -15195784.232 10 0 59588 69300.00000 0 -18512900.043 1084810.884 -17506116.628 10 0 59588 70200.00000 0 -16462691.163 60420.135 -19476199.204 10 0 59588 71100.00000 0 -14315769.955 -1240736.280 -21067743.532 10 0 59588 72000.00000 0 -12140309.855 -2807166.547 -22249822.267 10 0 59588 72900.00000 0 -10002561.652 -4614523.928 -22999469.545 10 0 59588 73800.00000 0 -7964210.610 -6626402.896 -23302126.223 10 0 59588 74700.00000 0 -6079942.025 -8795651.527 -23151921.602 10 0 59588 75600.00000 0 -4395316.252 -11066146.304 -22551786.434 10 0 59588 76500.00000 0 -2945041.232 -13374956.019 -21513395.157 10 0 59588 77400.00000 0 -1751713.823 -15654805.127 -20056938.531 10 0 59588 78300.00000 0 -825081.492 -17836734.345 -18210730.975 10 0 59588 79200.00000 0 -161854.165 -19852847.914 -16010660.059 10 0 59588 80100.00000 0 253927.065 -21639033.019 -13499488.629 10 0 59588 81000.00000 0 449981.014 -23137537.973 -10726022.937 10 0 59588 81900.00000 0 464376.725 -24299301.447 -7744162.761 10 0 59588 82800.00000 0 343683.442 -25085935.212 -4611852.076 10 0 59588 83700.00000 0 140759.407 -25471277.467 -1389950.771 10 0 59588 84600.00000 0 -87726.219 -25442451.667 1858950.396 10 0 59588 85500.00000 0 -283932.678 -25000386.603 5071748.063 10 0 59589 0.00000 0 -391535.794 -24159776.296 8186053.446 10 0 59589 900.00000 0 -358350.686 -22948481.155 11141405.840 10 0 59589 1800.00000 0 -138777.471 -21406397.162 13880444.360 10 0 59589 2700.00000 0 304033.709 -19583839.330 16350020.664 10 0 59589 3600.00000 0 996390.307 -17539508.490 18502226.986 10 0 59589 4500.00000 0 1952713.576 -15338126.275 20295321.472 10 0 59589 5400.00000 0 3174700.442 -13047837.189 21694533.145 10 0 59589 6300.00000 0 4651026.905 -10737485.916 22672731.553 10 0 59589 7200.00000 0 6357606.164 -8473883.007 23210948.717 10 0 59589 8100.00000 0 8258391.563 -6319172.122 23298743.954 10 0 59589 9000.00000 0 10306691.930 -4328407.595 22934404.948 10 0 59589 9900.00000 0 12446945.442 -2547442.249 22124981.419 10 0 59589 10800.00000 0 14616879.274 -1011212.305 20886150.747 10 0 59589 11700.00000 0 16749966.089 257510.158 19241917.845 10 0 59589 12600.00000 0 18778075.925 1248846.115 17224154.640 10 0 59589 13500.00000 0 20634213.696 1965990.356 14871987.396 10 0 59589 14400.00000 0 22255228.611 2424837.318 12231043.004 10 0 59589 15300.00000 0 23584382.547 2653068.340 9352568.215 10 0 59589 16200.00000 0 24573670.004 2688739.322 6292438.291 10 0 59589 17100.00000 0 25185792.264 2578428.792 3110073.917 10 0 59589 18000.00000 0 25395702.550 2375025.005 -132712.656 10 0 59589 18900.00000 0 25191656.872 2135246.121 -3372919.748 10 0 59589 19800.00000 0 24575725.853 1916998.914 -6547583.022 10 0 59589 20700.00000 0 23563745.505 1776688.456 -9595002.463 10 0 59589 21600.00000 0 22184708.613 1766593.414 -12455945.222 10 0 59589 22500.00000 0 20479621.906 1932418.848 -15074800.421 10 0 59589 23400.00000 0 18499876.816 2311130.889 -17400662.942 10 0 59589 24300.00000 0 16305202.021 2929165.730 -19388324.888 10 0 59589 25200.00000 0 13961283.439 3801089.478 -20999155.329 10 0 59589 26100.00000 0 11537151.277 4928766.278 -22201851.257 10 0 59589 27000.00000 0 9102443.202 6301070.712 -22973045.368 10 0 59589 27900.00000 0 6724657.676 7894157.534 -23297759.169 10 0 59589 28800.00000 0 4466511.753 9672278.290 -23169692.887 10 0 59589 29700.00000 0 2383512.985 11589111.552 -22591346.801 10 0 59589 30600.00000 0 521845.921 13589551.885 -21573971.839 10 0 59589 31500.00000 0 -1083339.423 15611883.375 -20137350.404 10 0 59589 32400.00000 0 -2409166.784 17590247.442 -18309411.633 10 0 59589 33300.00000 0 -3445749.946 19457302.207 -16125688.356 10 0 59589 34200.00000 0 -4196357.302 21146962.378 -13628626.118 10 0 59589 35100.00000 0 -4677019.161 22597105.173 -10866757.476 10 0 59589 36000.00000 0 -4915595.556 23752128.959 -7893757.460 10 0 59589 36900.00000 0 -4950345.047 24565257.254 -4767398.610 10 0 59589 37800.00000 0 -4828056.020 25000491.342 -1548426.029 10 0 59589 38700.00000 0 -4601820.512 25034129.437 1700625.450 10 0 59589 39600.00000 0 -4328545.546 24655788.491 4916648.497 10 0 59589 40500.00000 0 -4066308.096 23868885.752 8037190.879 10 0 59589 41400.00000 0 -3871666.266 22690559.869 11001669.196 10 0 59589 42300.00000 0 -3797040.949 21151035.004 13752544.766 10 0 59589 43200.00000 0 -3888279.088 19292454.706 16236438.797 10 0 59589 44100.00000 0 -4182501.823 17167234.467 18405165.269 10 0 59589 45000.00000 0 -4706328.567 14836001.948 20216661.743 10 0 59589 45900.00000 0 -5474552.160 12365210.715 21635800.578 10 0 59589 46800.00000 0 -6489321.203 9824526.758 22635065.472 10 0 59589 47700.00000 0 -7739864.407 7284096.179 23195080.819 10 0 59589 48600.00000 0 -9202769.161 4811807.089 23304984.322 10 0 59589 49500.00000 0 -10842803.505 2470658.648 22962636.078 10 0 59589 50400.00000 0 -12614248.027 316345.755 22174660.370 10 0 59589 51300.00000 0 -14462683.059 -1604841.326 20956319.366 10 0 59589 52200.00000 0 -16327157.614 -3257716.126 19331220.923 10 0 59589 53100.00000 0 -18142650.358 -4619424.141 17330865.663 10 0 59589 54000.00000 0 -19842720.678 -5680149.845 14994041.477 10 0 59589 54900.00000 0 -21362239.616 -6443273.906 12366076.421 10 0 59589 55800.00000 0 -22640086.703 -6924974.803 9497963.839 10 0 59589 56700.00000 0 -23621699.824 -7153292.282 6445376.074 10 0 59589 57600.00000 0 -24261370.987 -7166692.707 3267585.501 10 0 59589 58500.00000 0 -24524191.149 -7012197.292 26313.710 10 0 59589 59400.00000 0 -24387561.828 -6743152.829 -3215468.701 10 0 59589 60300.00000 0 -23842209.182 -6416739.702 -6394768.174 10 0 59589 61200.00000 0 -22892657.215 -6091323.226 -9449795.654 10 0 59589 62100.00000 0 -21557139.439 -5823761.052 -12321171.129 10 0 59589 63000.00000 0 -19866952.094 -5666781.317 -14953081.293 10 0 59589 63900.00000 0 -17865275.539 -5666543.175 -17294367.300 10 0 59589 64800.00000 0 -15605512.826 -5860483.590 -19299521.204 10 0 59589 65700.00000 0 -13149214.704 -6275542.077 -20929571.610 10 0 59589 66600.00000 0 -10563677.599 -6926839.036 -22152841.295 10 0 59589 67500.00000 0 -7919314.655 -7816864.071 -22945562.346 10 0 59589 68400.00000 0 -5286909.146 -8935209.224 -23292337.114 10 0 59589 69300.00000 0 -2734864.448 -10258859.006 -23186436.319 10 0 59589 70200.00000 0 -326564.569 -11753025.792 -22629928.798 10 0 59589 71100.00000 0 1882045.540 -13372496.211 -21633640.516 10 0 59589 72000.00000 0 3844559.819 -15063432.679 -20216943.680 10 0 59589 72900.00000 0 5525804.560 -16765555.112 -18407379.991 10 0 59589 73800.00000 0 6903055.950 -18414611.838 -16240125.138 10 0 59589 74700.00000 0 7966731.962 -19945036.334 -13757304.771 10 0 59589 75600.00000 0 8720530.957 -21292678.563 -11007175.022 10 0 59589 76500.00000 0 9181012.542 -22397496.266 -8043183.342 10 0 59589 77400.00000 0 9376639.564 -23206093.056 -4922927.965 10 0 59589 78300.00000 0 9346322.911 -23673996.498 -1707036.333 10 0 59589 79200.00000 0 9137531.678 -23767580.123 1542015.476 10 0 59589 80100.00000 0 8804049.572 -23465548.311 4761118.893 10 0 59589 81000.00000 0 8403473.317 -22759921.390 7887760.556 10 0 59589 81900.00000 0 7994559.636 -21656479.315 10861237.325 10 0 59589 82800.00000 0 7634533.556 -20174645.175 13623834.621 10 0 59589 83700.00000 0 7376472.274 -18346813.279 16121945.120 10 0 59589 84600.00000 0 7266875.369 -16217149.807 18307106.177 10 0 59589 85500.00000 0 7343524.058 -13839916.073 20136936.080 99